Airfield :
LOGIN :

Register | Disclaimer

   EN    FR    IT 

 










Legend :    VFR   Marginal VFR   IFR   Intensive IFR   Very Intensive IFR
Visi :
Ceiling :
>= 8 km
>= 3000ft
5 to 8 km
1000 to 3000 ft
1500m to 5 km
500 to 1000 ft
800 to 1500m
200 to 500 ft
< 800m
< 200 ft
Symbols :   Thunderstorms  Fog  Heavy snow  Heavy precipitations  Wind > 20 kt
SIGMETs :     Misc.  Thunderstorms  Icing  Turbulence  Mountain Waves  Volcanic Ashes







- Airport Elevation : 400 ft
- IATA code : BNX


LQBK - Banja Luka

CURRENT METAR :
  • 100230Z 28003KT CAVOK 01/01 Q1009 NOSIG

EXPIRED METARs :
  • 100200Z 32003KT CAVOK 00/00 Q1009 NOSIG
  • 100130Z VRB02KT CAVOK 01/01 Q1009 NOSIG
  • 100100Z 18004KT CAVOK 02/02 Q1008 NOSIG
  • 100030Z VRB02KT CAVOK 01/01 Q1008 NOSIG
  • 100000Z VRB02KT CAVOK 02/01 Q1008 NOSIG

TAF TAF LQBK
Valid from the 10 at 00:00 until the 11 at 00:00 UTC


092300Z 1000/1024 19005KT CAVOK TX06/1013Z TN02/1023Z
PROB40
TEMPO 1000/1008 3000 -RA BR BKN013 OVC030
TEMPO 1008/1024 34010KT
No reported NOTAMs for that airfield.



MET'MAP, your aeronautical weather chart ! - Copyright ORBIFLY December 2007 - Disclaimer

ORBIFLY MET'MAP TEAM :

Programming & Development : Alexandra Zaïnal
Concept & Development : Baudouin d'Aumeries
Co-Development & Prog : Marc-Olivier Méhu
Technical & hardware support : Manuel Goepfert

Contact : metmap@orbifly.com




SOURCES & CREDITS :

   NOAA